Wind_Speed
45 45 46 46 46 45 44 43 43 43 42 42 42 42 42 43 43 43 44 45 46 46 46 45 44 43 40 40 39 39 37 37 36 35 34 34 34 34 34 34 34 34 33
42 44 45 46 46 47 46 45 45 44 45 45 45 45 45 44 44 44 45 45 46 47 49 48 47 46 45 44 42 40 38 37 36 35 35 35 35 35 35 36 36 35 34
39 39 40 41 43 43 44 45 45 45 46 46 46 45 46 46 45 45 46 47 46 47 49 48 48 47 47 46 43 40 39 37 36 36 35 35 35 35 34 36 36 35 34
39 38 39 39 40 41 43 44 44 45 46 47 46 46 46 47 46 46 46 46 46 45 47 47 48 48 46 44 43 40 39 37 35 35 34 34 33 33 33 33 34 34 34
40 40 40 40 40 41 43 44 45 46 47 47 47 48 48 47 47 47 47 47 47 46 46 46 46 47 45 44 42 39 37 35 34 32 32 32 33 33 32 30 31 33 33
40 41 41 41 42 42 43 45 46 47 48 49 49 49 49 49 48 49 49 49 48 46 46 45 43 43 43 41 40 38 35 33 32 33 32 32 33 33 32 30 30 31 33
37 38 39 41 42 43 44 45 46 47 48 49 50 50 51 51 51 51 50 50 50 48 47 45 43 43 43 40 38 37 36 34 33 33 33 32 32 32 31 30 30 30 32
33 34 36 37 39 41 42 44 45 46 48 49 50 50 50 51 50 50 50 49 48 46 45 45 43 41 40 39 36 35 34 33 32 32 32 31 31 31 31 31 30 30 31
30 31 32 34 35 37 39 41 43 45 46 47 48 49 50 50 49 49 48 48 47 46 46 43 42 40 39 36 34 34 33 32 31 31 31 31 31 32 32 32 31 31 30
30 30 32 33 34 36 37 39 42 44 45 46 48 49 50 50 50 49 48 48 47 45 43 42 41 39 37 35 33 33 32 31 31 31 31 32 32 33 33 33 33 33 32
29 30 31 32 33 35 36 38 39 41 42 43 44 46 47 48 48 48 47 46 46 45 43 41 40 38 36 33 32 33 33 32 31 31 32 32 33 34 34 34 34 34 34
30 31 32 33 34 34 35 36 37 38 39 39 40 42 42 43 44 44 43 41 41 42 42 40 38 35 34 33 32 32 31 31 31 31 32 32 33 34 34 34 35 35 35
32 33 33 33 33 33 33 33 33 34 35 35 36 37 37 38 40 39 38 39 39 40 40 39 36 33 32 30 30 29 30 30 30 31 31 32 33 33 34 35 36 37 37
33 32 33 32 32 31 30 30 29 29 30 31 33 33 33 34 35 37 37 36 35 36 35 34 33 32 30 29 29 28 28 29 29 29 30 31 32 33 34 35 36 38 39
31 31 31 30 29 28 27 27 27 27 27 28 29 30 29 29 30 31 32 31 31 30 31 31 30 28 27 26 25 26 26 27 27 28 29 30 31 32 34 35 37 38 39
30 29 29 27 27 27 26 26 25 24 24 25 25 24 24 23 23 23 24 25 25 25 24 24 24 24 23 24 24 23 24 24 25 26 27 28 30 32 33 34 35 36 38
30 29 27 26 26 25 24 22 22 22 21 20 20 20 19 17 17 17 16 16 17 18 18 18 19 20 20 20 21 21 22 22 23 23 25 26 28 30 31 33 34 36 37
29 28 26 25 24 23 22 21 20 19 18 17 17 15 15 14 13 13 11 11 12 14 15 16 16 16 17 17 18 18 18 18 20 22 24 26 27 29 31 34 35 37 37
29 27 26 25 23 22 21 19 18 17 17 16 15 13 12 12 12 13 12 11 10 11 12 14 14 14 14 14 14 14 15 17 19 20 22 25 27 29 31 33 35 36 37
28 27 25 24 22 21 19 17 17 16 16 15 14 13 12 11 11 11 12 11 11 10 10 10 10 10 10 11 11 13 15 16 17 20 22 24 26 29 31 33 35 36 36
28 26 25 24 22 20 18 16 16 15 14 13 12 12 11 11 11 10 10 11 10 10 9 9 9 9 9 10 11 12 14 15 17 19 22 24 26 29 31 32 33 34 34
28 26 25 23 22 20 18 16 15 14 13 12 11 11 10 10 11 11 10 10 10 10 10 9 9 10 10 10 11 12 13 15 17 19 22 24 26 28 30 31 32 32 32
28 26 25 23 22 20 19 17 15 14 13 12 11 10 10 10 11 11 10 10 10 10 10 10 10 10 10 10 11 12 14 16 17 20 22 24 26 28 29 30 30 30 30
29 27 25 24 23 21 20 18 16 15 14 13 12 12 12 12 12 11 11 11 11 11 11 10 10 10 11 11 12 13 14 16 18 20 22 24 26 27 28 29 30 30 29
29 28 26 25 24 23 22 20 18 16 15 14 13 13 12 12 12 12 12 12 12 12 12 11 11 12 12 12 13 13 14 16 17 19 21 23 25 27 28 29 30 30 29
31 29 27 27 26 25 23 22 21 19 17 16 15 14 14 14 14 14 14 13 13 13 13 13 13 13 13 13 14 14 15 16 17 18 20 22 24 26 27 28 29 30 29
Wind_Direction
265 266 267 268 269 270 271 271 271 270 270 269 269 269 270 271 274 276 275 274 275 275 272 270 269 268 268 269 270 271 270 271 271 271 273 275 277 280 283 285 287 289 290
264 264 264 265 266 268 269 269 268 268 268 267 268 269 270 273 274 274 276 276 276 274 271 269 268 267 266 267 268 268 269 270 270 272 274 275 277 279 282 285 287 288 289
266 264 264 264 264 265 266 266 265 266 268 269 269 271 270 271 273 273 276 276 276 275 273 269 268 268 267 268 266 267 267 268 270 272 274 275 277 279 281 284 286 288 289
268 267 264 263 263 263 263 264 264 267 268 269 270 271 272 273 275 275 277 278 278 278 275 272 272 270 270 268 266 265 267 267 270 273 274 279 280 279 280 282 284 286 287
269 268 266 265 265 264 264 265 266 267 269 270 271 272 273 273 274 275 277 277 278 277 277 276 272 269 270 269 266 263 266 267 270 273 275 278 281 281 282 282 284 285 286
269 269 268 268 268 267 267 267 268 269 269 270 272 272 273 273 273 274 276 276 276 276 277 277 273 270 268 265 264 263 265 267 269 272 274 278 281 282 283 282 281 282 284
270 270 270 269 269 269 269 269 270 270 271 271 272 272 273 273 274 274 274 274 274 274 275 273 272 269 267 265 265 263 265 267 269 271 274 277 279 282 282 283 282 281 282
273 273 272 272 271 270 270 270 270 270 271 271 272 273 273 273 274 274 272 272 272 273 273 270 268 267 265 263 263 262 263 265 268 270 273 276 279 281 282 282 282 282 281
277 276 275 274 274 273 272 271 271 271 271 272 272 272 273 272 273 273 272 271 270 270 271 269 267 264 263 260 261 261 261 263 267 270 273 276 279 281 282 282 282 282 281
280 279 279 278 277 276 275 274 272 271 271 273 273 273 272 272 271 270 269 270 268 267 268 266 263 262 260 259 260 261 262 264 268 271 274 277 279 280 281 282 282 282 281
283 282 283 283 283 281 280 278 276 275 275 276 275 274 272 271 269 268 266 267 265 262 264 261 258 258 258 258 261 262 263 266 270 273 275 277 278 279 281 281 282 282 281
285 285 285 286 287 285 284 283 281 279 279 278 277 275 273 271 269 267 264 263 260 258 258 256 255 254 254 256 260 263 267 268 270 273 276 277 278 279 280 281 281 281 281
287 287 287 288 290 289 289 288 286 284 282 281 280 278 273 271 268 264 260 258 256 255 254 254 251 251 252 255 259 264 268 269 272 274 276 277 279 280 280 281 281 282 281
288 287 287 289 291 291 291 291 290 288 286 283 281 278 275 272 268 262 259 255 252 250 249 248 248 251 254 257 261 265 268 270 273 275 277 279 280 281 282 283 283 283 282
289 288 288 289 290 292 293 291 290 289 287 285 282 279 277 273 268 263 261 257 255 249 247 248 250 253 255 259 264 266 269 271 274 277 278 280 283 284 285 285 285 284 283
292 291 290 290 291 292 292 293 292 290 291 288 284 280 278 271 266 265 261 257 253 250 250 246 248 250 254 260 263 267 270 273 275 278 281 284 286 287 288 288 287 286 286
293 291 290 290 292 293 293 294 295 294 293 292 288 285 282 277 269 264 255 248 247 248 246 244 245 250 255 258 262 266 271 274 278 282 286 288 290 291 291 290 290 289 288
297 291 289 288 289 291 292 294 294 294 295 296 293 287 284 278 273 267 258 251 251 252 249 248 250 253 256 260 265 268 272 276 281 287 291 293 294 295 296 296 296 294 292
296 292 289 289 288 288 290 292 292 293 294 296 292 284 280 275 271 268 263 261 258 255 249 247 249 252 257 259 264 270 276 281 287 292 296 298 299 301 302 302 300 298 296
295 291 288 288 287 286 288 291 293 291 291 291 286 279 273 269 266 263 259 254 249 246 245 244 245 248 252 258 266 273 280 286 292 298 302 303 305 306 307 307 304 301 299
293 290 287 284 283 283 284 287 288 287 285 284 281 276 269 261 258 256 254 247 243 243 242 242 242 246 254 262 268 276 286 294 300 306 309 312 313 314 313 312 309 306 303
291 286 284 282 280 278 279 281 281 280 279 278 275 270 265 258 250 247 244 240 237 235 235 237 243 252 258 264 273 283 292 300 307 313 317 320 321 321 320 319 316 313 309
290 284 280 278 276 273 273 274 274 273 272 270 265 261 256 251 245 241 236 233 232 233 237 243 249 255 261 269 278 288 298 306 312 318 322 325 326 326 326 325 324 321 316
288 283 277 273 271 269 267 267 268 267 265 263 260 256 251 247 243 239 237 234 233 236 241 245 250 258 264 271 282 292 300 308 315 321 326 330 332 332 331 331 330 328 324
285 281 276 271 268 266 263 260 260 259 257 255 253 250 247 243 240 238 236 237 239 241 245 249 256 262 267 273 284 293 300 309 316 323 329 333 335 336 336 336 337 335 331
281 277 274 269 265 263 259 255 254 252 251 249 248 246 245 243 241 240 240 241 243 244 247 252 258 264 269 275 283 292 299 308 316 323 330 335 337 339 339 340 340 340 338
Height
5887 5886 5886 5885 5884 5884 5884 5883 5882 5882 5881 5880 5879 5878 5876 5875 5874 5872 5871 5869 5868 5867 5866 5865 5864 5863 5863 5862 5861 5860 5859 5858 5857 5857 5857 5856 5854 5853 5852 5851 5849 5848 5847
5876 5876 5876 5875 5875 5874 5874 5874 5873 5873 5872 5871 5870 5869 5867 5866 5865 5863 5862 5860 5858 5857 5855 5855 5854 5853 5853 5853 5852 5851 5851 5850 5849 5849 5848 5848 5847 5846 5844 5843 5841 5840 5839
5866 5866 5866 5865 5865 5865 5864 5864 5863 5863 5862 5861 5861 5859 5858 5857 5855 5854 5852 5851 5849 5847 5845 5845 5844 5843 5843 5843 5842 5842 5842 5841 5841 5840 5840 5840 5839 5838 5837 5835 5833 5832 5830
5856 5856 5856 5856 5856 5855 5855 5854 5853 5853 5853 5851 5850 5850 5848 5847 5846 5843 5842 5841 5839 5837 5836 5835 5834 5833 5832 5832 5832 5832 5832 5832 5832 5832 5831 5831 5830 5830 5829 5827 5825 5824 5822
5847 5846 5846 5846 5846 5846 5845 5844 5844 5843 5842 5841 5840 5839 5837 5836 5835 5833 5832 5830 5828 5827 5826 5824 5824 5823 5823 5822 5822 5823 5823 5823 5823 5824 5823 5822 5822 5821 5821 5820 5818 5816 5814
5837 5837 5836 5836 5836 5835 5834 5834 5833 5832 5831 5830 5828 5827 5826 5824 5823 5822 5821 5819 5818 5816 5815 5814 5813 5812 5812 5812 5812 5813 5814 5814 5815 5815 5815 5815 5814 5813 5812 5812 5811 5809 5807
5828 5827 5826 5825 5825 5824 5823 5822 5821 5820 5819 5817 5816 5815 5813 5812 5811 5810 5809 5807 5806 5805 5804 5803 5802 5802 5801 5802 5803 5804 5805 5805 5806 5806 5807 5806 5805 5804 5804 5803 5802 5801 5799
5819 5817 5816 5815 5814 5813 5811 5810 5809 5807 5806 5804 5803 5801 5800 5799 5797 5797 5796 5794 5793 5792 5792 5791 5791 5791 5792 5792 5794 5795 5796 5796 5797 5798 5798 5798 5797 5796 5795 5795 5794 5793 5792
5810 5808 5806 5805 5803 5801 5800 5798 5796 5795 5793 5791 5789 5787 5786 5785 5784 5783 5783 5782 5781 5781 5781 5780 5781 5782 5782 5782 5784 5785 5787 5787 5788 5789 5789 5789 5788 5788 5787 5786 5786 5785 5784
5801 5799 5797 5795 5793 5790 5788 5786 5784 5782 5780 5778 5776 5774 5772 5771 5770 5770 5770 5769 5769 5769 5769 5770 5771 5772 5772 5773 5775 5776 5777 5778 5779 5780 5780 5780 5780 5779 5779 5778 5777 5776 5776
5792 5790 5787 5784 5782 5779 5777 5774 5771 5769 5766 5764 5762 5759 5758 5757 5756 5756 5756 5757 5757 5758 5758 5759 5761 5762 5763 5764 5766 5767 5768 5770 5770 5771 5771 5771 5771 5770 5770 5769 5768 5767 5766
5783 5780 5777 5774 5771 5768 5764 5761 5758 5755 5753 5751 5748 5746 5745 5743 5743 5743 5744 5744 5745 5746 5747 5749 5751 5752 5753 5755 5757 5758 5760 5761 5762 5762 5763 5762 5762 5762 5761 5760 5759 5757 5756
5774 5770 5767 5764 5761 5757 5753 5750 5746 5744 5741 5739 5736 5734 5732 5731 5731 5732 5732 5733 5734 5734 5736 5739 5741 5742 5744 5746 5748 5750 5751 5753 5753 5754 5754 5754 5753 5753 5751 5750 5749 5748 5746
5764 5761 5757 5754 5751 5747 5743 5740 5737 5734 5731 5728 5726 5724 5722 5721 5721 5721 5722 5723 5724 5725 5727 5730 5732 5734 5736 5738 5740 5742 5743 5745 5745 5745 5745 5745 5744 5743 5742 5741 5739 5738 5736
5755 5752 5748 5746 5742 5739 5735 5732 5729 5725 5722 5720 5718 5716 5714 5713 5712 5712 5713 5714 5715 5717 5720 5722 5724 5727 5729 5731 5733 5735 5736 5737 5737 5737 5737 5736 5735 5734 5733 5731 5729 5727 5725
5747 5744 5740 5737 5735 5732 5728 5725 5722 5718 5716 5713 5711 5709 5708 5706 5705 5705 5705 5707 5708 5710 5713 5715 5717 5720 5722 5725 5727 5728 5729 5730 5730 5730 5729 5728 5727 5726 5724 5722 5720 5717 5715
5739 5736 5733 5730 5727 5724 5721 5718 5715 5712 5710 5707 5705 5704 5703 5701 5701 5700 5700 5702 5703 5706 5708 5709 5711 5714 5717 5719 5721 5722 5723 5723 5723 5723 5722 5720 5719 5717 5715 5713 5710 5707 5704
5731 5728 5726 5723 5720 5718 5715 5713 5710 5707 5705 5702 5701 5699 5699 5698 5698 5698 5698 5699 5700 5702 5703 5705 5707 5709 5711 5713 5715 5716 5717 5717 5717 5716 5715 5713 5711 5708 5706 5703 5700 5696 5693
5724 5721 5719 5716 5714 5712 5710 5707 5705 5702 5700 5698 5697 5696 5695 5695 5695 5695 5696 5696 5697 5698 5700 5702 5703 5705 5707 5708 5710 5711 5711 5711 5711 5709 5708 5706 5703 5700 5697 5693 5689 5685 5681
5716 5714 5712 5710 5708 5706 5704 5702 5700 5698 5696 5694 5693 5692 5692 5691 5691 5692 5692 5693 5694 5696 5697 5698 5700 5701 5703 5704 5705 5706 5707 5706 5705 5703 5701 5699 5696 5692 5689 5684 5680 5675 5671
5709 5706 5705 5703 5701 5700 5699 5697 5695 5694 5692 5691 5690 5689 5688 5688 5688 5689 5689 5690 5691 5692 5694 5695 5696 5698 5699 5701 5701 5702 5702 5701 5699 5697 5695 5692 5689 5685 5681 5676 5671 5665 5661
5701 5699 5697 5696 5695 5694 5693 5692 5690 5689 5688 5687 5686 5686 5686 5686 5686 5686 5687 5688 5688 5690 5691 5693 5694 5695 5696 5697 5697 5697 5697 5696 5694 5692 5689 5686 5682 5678 5673 5668 5662 5657 5652
5694 5692 5690 5689 5688 5687 5687 5686 5685 5685 5684 5683 5683 5683 5683 5683 5683 5684 5684 5685 5686 5687 5689 5690 5691 5691 5692 5693 5693 5693 5692 5690 5689 5686 5683 5679 5675 5671 5666 5660 5655 5649 5644
5685 5684 5682 5682 5681 5681 5681 5680 5680 5680 5679 5679 5679 5679 5679 5680 5680 5681 5682 5682 5683 5684 5685 5686 5687 5688 5688 5689 5689 5688 5687 5686 5684 5681 5678 5674 5669 5665 5660 5654 5648 5642 5637
5677 5675 5674 5674 5674 5674 5674 5674 5674 5674 5675 5675 5675 5675 5675 5676 5677 5677 5678 5679 5680 5681 5682 5683 5683 5684 5685 5685 5684 5683 5682 5681 5678 5676 5672 5668 5664 5659 5654 5649 5643 5637 5631
5667 5666 5666 5665 5666 5666 5667 5667 5668 5669 5669 5669 5670 5671 5671 5672 5673 5673 5674 5675 5676 5677 5678 5679 5679 5680 5680 5680 5679 5679 5678 5676 5673 5671 5667 5663 5659 5654 5649 5644 5638 5632 5626